Satellite: MET-3/5
Catalog number: 21655
Epoch time:      08191.90797915
Element set:    0541
Inclination:      082.5550 deg
RA of node:       088.3367 deg
Eccentricity:    0.0013140
Arg of perigee:   322.4901 deg
Mean anomaly:     037.5304 deg
Mean motion:   13.17015931 rev/day
Decay rate:        5.1e-07 rev/day^2
Epoch rev:           81257
Checksum:              286

Satellite: MET-2/21
Catalog number: 22782
Epoch time:      08192.27759929
Element set:     192
Inclination:      082.5477 deg
RA of node:       093.2644 deg
Eccentricity:    0.0021308
Arg of perigee:   223.0127 deg
Mean anomaly:     136.9361 deg
Mean motion:   13.83631514 rev/day
Decay rate:        6.9e-07 rev/day^2
Epoch rev:           75032
Checksum:              307

Satellite: OKEAN-4
Catalog number: 23317
Epoch time:      08191.73348749
Element set:     635
Inclination:      082.5404 deg
RA of node:       294.0310 deg
Eccentricity:    0.0023817
Arg of perigee:   055.4164 deg
Mean anomaly:     304.9304 deg
Mean motion:   14.82622678 rev/day
Decay rate:       2.21e-06 rev/day^2
Epoch rev:           74162
Checksum:              290

Satellite: NOAA-14
Catalog number: 23455
Epoch time:      08191.84158619
Element set:    0215
Inclination:      098.9448 deg
RA of node:       264.0972 deg
Eccentricity:    0.0010401
Arg of perigee:   082.2523 deg
Mean anomaly:     277.9833 deg
Mean motion:   14.13743708 rev/day
Decay rate:      -1.15e-06 rev/day^2
Epoch rev:           69755
Checksum:              320

Satellite: SICH-1
Catalog number: 23657
Epoch time:      08192.58312357
Element set:     434
Inclination:      082.5265 deg
RA of node:       074.2308 deg
Eccentricity:    0.0025420
Arg of perigee:   045.5917 deg
Mean anomaly:     314.7405 deg
Mean motion:   14.81590608 rev/day
Decay rate:       1.32e-06 rev/day^2
Epoch rev:           69368
Checksum:              299

Satellite: NOAA-15
Catalog number: 25338
Epoch time:      08191.76070894
Element set:    0536
Inclination:      098.5550 deg
RA of node:       183.0459 deg
Eccentricity:    0.0010293
Arg of perigee:   342.7042 deg
Mean anomaly:     017.3745 deg
Mean motion:   14.24712290 rev/day
Decay rate:       -8.1e-07 rev/day^2
Epoch rev:           52801
Checksum:              296

Satellite: RESURS
Catalog number: 25394
Epoch time:      08192.71521008
Element set:     971
Inclination:      098.3873 deg
RA of node:       235.6025 deg
Eccentricity:    0.0002097
Arg of perigee:   105.7056 deg
Mean anomaly:     254.4355 deg
Mean motion:   14.24164173 rev/day
Decay rate:        1.4e-07 rev/day^2
Epoch rev:           51979
Checksum:              294

Satellite: FENGYUN1
Catalog number: 25730
Epoch time:      08191.94434059
Element set:    0484
Inclination:      098.7218 deg
RA of node:       166.9573 deg
Eccentricity:    0.0022300
Arg of perigee:   102.5741 deg
Mean anomaly:     257.7923 deg
Mean motion:   14.07713413 rev/day
Decay rate:       3.37e-06 rev/day^2
Epoch rev:           47216
Checksum:              298

Satellite: OKEAN-0
Catalog number: 25860
Epoch time:      08191.93282148
Element set:    0415
Inclination:      097.7502 deg
RA of node:       181.4738 deg
Eccentricity:    0.0000938
Arg of perigee:   103.1119 deg
Mean anomaly:     257.0194 deg
Mean motion:   14.73527967 rev/day
Decay rate:       -3.0e-08 rev/day^2
Epoch rev:           48274
Checksum:              305

Satellite: NOAA-16
Catalog number: 26536
Epoch time:      08191.80394357
Element set:    0007
Inclination:      099.1566 deg
RA of node:       181.4769 deg
Eccentricity:    0.0010893
Arg of perigee:   157.4278 deg
Mean anomaly:     202.7341 deg
Mean motion:   14.12490031 rev/day
Decay rate:       2.59e-06 rev/day^2
Epoch rev:           40196
Checksum:              311

Satellite: NOAA-17
Catalog number: 27453
Epoch time:      08191.81838530
Element set:    0998
Inclination:      098.5327 deg
RA of node:       255.7893 deg
Eccentricity:    0.0012533
Arg of perigee:   046.5239 deg
Mean anomaly:     313.6974 deg
Mean motion:   14.23986215 rev/day
Decay rate:       -4.1e-07 rev/day^2
Epoch rev:           31402
Checksum:              327

Satellite: NOAA-18
Catalog number: 28654
Epoch time:      08191.81247946
Element set:    0496
Inclination:      098.8674 deg
RA of node:       132.4651 deg
Eccentricity:    0.0013280
Arg of perigee:   249.3614 deg
Mean anomaly:     110.6125 deg
Mean motion:   14.11178037 rev/day
Decay rate:       3.65e-06 rev/day^2
Epoch rev:           16166
Checksum:              313

/EX
SB KEPS @ AMSAT  $ORB08192.M
Orbital Elements  08192.MISC

HR AMSAT ORBITAL ELEMENTS FOR MANNED AND MISCELLANEOUS SATELLITES
FROM WA5QGD FORT WORTH,TX July 10, 2008
Send Subscribe/unsubscribe to KEPS at 
http://www.amsat.org/mailman/listinfo/keps
BID: ORB08192.M
TO ALL RADIO AMATEURS BT

Satellite: HUBBLE
Catalog number: 20580
Epoch time:      08191.36137517
Element set:    0185
Inclination:      028.4681 deg
RA of node:       178.5942 deg
Eccentricity:    0.0003626
Arg of perigee:   255.4161 deg
Mean anomaly:     104.6027 deg
Mean motion:   15.00391268 rev/day
Decay rate:       2.36e-06 rev/day^2
Epoch rev:           79831
Checksum:              290

